DW0268 Weather Reports


time (UTC)temp
C
wind
direction
speed
KPH
gust
KPH
rain 1hr
cm
rain 24hr
cm
rain mn
cm
humidity
%
barometer
mb
20260504231530 25 205 30.6 48.3 0.00 0.00 0.00 47 1010.2
20260504230024 26 220 37.0 51.5 0.00 0.00 0.00 47 1010.3
20260504224522 26 207 33.8 49.9 0.00 0.00 0.00 46 1010.3
20260504223021 26 202 33.8 48.3 0.00 0.00 0.00 47 1010.5
20260504221519 26 232 37.0 49.9 0.00 0.00 0.00 46 1010.6
20260504220018 26 239 37.0 49.9 0.00 0.00 0.00 45 1010.7
20260504214518 26 241 37.0 51.5 0.00 0.00 0.00 45 1010.6
20260504213016 26 225 38.6 49.9 0.00 0.00 0.00 44 1010.6
20260504211515 26 211 37.0 51.5 0.00 0.00 0.00 45 1010.7
20260504210021 26 238 43.5 62.8 0.00 0.00 0.00 42 1010.8
20260504204512 26 220 40.2 59.5 0.00 0.00 0.00 43 1010.9
20260504203011 26 225 40.2 61.2 0.00 0.00 0.00 42 1011.0
20260504201508 26 360 37.0 64.4 0.00 0.00 0.00 42 1011.2
20260504200010 26 232 38.6 61.2 0.00 0.00 0.00 42 1011.4
20260504194506 26 233 43.5 61.2 0.00 0.00 0.00 39 1011.4
20260504193006 26 221 32.2 53.1 0.00 0.00 0.00 42 1011.7
20260504191611 26 218 46.7 64.4 0.00 0.00 0.00 41 1011.8
20260504190126 26 215 37.0 48.3 0.00 0.00 0.00 44 1011.9
20260504184558 26 238 45.1 54.7 0.00 0.00 0.00 43 1012.0
20260504183105 26 237 38.6 56.3 0.00 0.00 0.00 41 1012.3
20260504181558 26 226 43.5 57.9 0.00 0.00 0.00 41 1012.3
20260504180054 26 231 40.2 53.1 0.00 0.00 0.00 43 1012.4
20260504174551 26 224 38.6 53.1 0.00 0.00 0.00 42 1012.6
20260504173049 26 213 40.2 64.4 0.00 0.00 0.00 41 1012.8
20260504171547 26 228 38.6 54.7 0.00 0.00 0.00 42 1013.1
20260504081537 17 190 14.5 19.3 0.00 0.00 0.00 69 1013.8
20260504050012 16 203 9.7 16.1 0.00 0.00 0.00 71 1015.8
20260504044508 17 207 11.3 19.3 0.00 0.00 0.00 69 1016.0
20260504043008 17 208 12.9 19.3 0.00 0.00 0.00 69 1016.1
20260504041510 17 190 14.5 22.5 0.00 0.00 0.00 68 1016.1
20260504040008 17 190 14.5 20.9 0.00 0.00 0.00 67 1016.1
20260504034507 17 187 12.9 22.5 0.00 0.00 0.00 66 1016.2
20260504033008 18 188 14.5 24.1 0.00 0.00 0.00 64 1016.3
20260504031605 18 201 16.1 22.5 0.00 0.00 0.00 63 1016.3
20260504030005 18 190 14.5 20.9 0.00 0.00 0.00 63 1016.3
20260504024504 18 195 12.9 24.1 0.00 0.00 0.00 62 1016.2
20260504023004 18 196 14.5 19.3 0.00 0.00 0.00 61 1016.4
20260504021503 18 198 12.9 19.3 0.00 0.00 0.00 60 1016.3
20260504020001 19 205 12.9 19.3 0.00 0.00 0.00 59 1016.2
20260504014606 19 193 14.5 22.5 0.00 0.00 0.00 58 1016.0
20260504013100 19 188 12.9 17.7 0.00 0.00 0.00 56 1016.2
20260504011558 20 196 11.3 14.5 0.00 0.00 0.00 55 1016.0
20260504010105 20 198 11.3 17.7 0.00 0.00 0.00 53 1015.8
20260504004556 20 202 16.1 29.0 0.00 0.00 0.00 51 1016.0
20260504003057 21 212 19.3 38.6 0.00 0.00 0.00 50 1016.1
20260504001554 21 215 25.7 38.6 0.00 0.00 0.00 48 1016.2
20260504000132 22 212 20.9 40.2 0.00 0.00 0.00 47 1016.3
20260503234557 22 213 25.7 40.2 0.00 0.00 0.00 46 1016.5
20260503233048 22 222 25.7 38.6 0.00 0.00 0.00 45 1016.6